スコッティ彗星

P/2010 H4 ( Scotti )

English version
Home page
Updated on October 3, 2011

---------------------------------------------------------------------

・ プロフィール

発見日 2010年4月20日
発見光度 21.0等
発見者 J. V. Scotti (Spacewatch)

・ 軌道要素

Epoch 2010 June 13.0 TT = JDT 2455360.5
T 2010 June 19.87200 TT                                 MPC
q   4.8303021            (2000.0)            P               Q
n   0.05803482     Peri.  179.76212     -0.71211910     +0.70147736
a   6.6070913      Node    44.83009     -0.64419314     -0.63670828
e   0.2689215      Incl.    2.32203     -0.27910856     -0.32020632
P  17.0
From 49 observations 2010 Apr. 20-June 13, mean residual 0".4.

・ 光度変化

        m1 = 10.5 + 5 logΔ + 10.0 log r

---------------------------------------------------------------------

軌道要素はM.P.E.C. 2010-X76に掲載されたものです。
光度グラフはComet for Windowsで作成したものです。

---------------------------------------------------------------------

Copyright(C) Seiichi Yoshida (comet@aerith.net). All rights reserved.